Nome, AK

3:21 AM AKST on December 16, 2017 (GMT -0900)
Nome

Weather History for PAOM - March, 2013

Change the Weather History Date:

Tuesday, March 12, 2013

  Actual Average Record
Temperature  
Mean Temperature -3 °F 10 °F  
Max Temperature 4 °F 18 °F 35 °F (1998)
Min Temperature -10 °F 1 °F -41 °F (1971)
Degree Days  
Heating Degree Days 68 55  
Month to date heating degree days 597 667  
Since 1 July heating degree days 10138 9946  
Cooling Degree Days 0 0  
Month to date cooling degree days 0 0  
Year to date cooling degree days 0 0  
Moisture  
Dew Point -5 °F    
Average Humidity 0    
Maximum Humidity 0    
Minimum Humidity 0    
Precipitation  
Precipitation 0.00 in 0.02 in 0.39 in (1977)
Month to date precipitation 0.51 0.28  
Year to date precipitation 2.03 2.15  
Snow  
Snow 0.00 in 0.20 in 6.00 in (1917)
Month to date snowfall 5.3 4.0  
Since 1 July snowfall 46.6 60.7  
Snow Depth 28.00 in    
Sea Level Pressure  
Sea Level Pressure 30.63 in    
Wind  
Wind Speed 1 mph (NW)    
Max Wind Speed 7 mph    
Max Gust Speed 7 mph    
Visibility 4 miles    
Events Fog    
T = Trace of Precipitation, MM = Missing Value Source: NWS Daily Summary

Daily Weather History Graph

Daily Weather History Graph

Search for Another Location

Airport or City:

Trip Planner

Search our weather history database for the weather conditions in past years. The results will help you decide how hot, cold, wet, or windy it might be!

Date:

Astronomy

Mar. 12, 2013 Rise Set
Actual Time 9:29 AM AKDT 8:54 PM AKDT
Civil Twilight 8:41 AM AKDT 9:43 PM AKDT
Nautical Twilight 7:44 AM AKDT 10:40 PM AKDT
Astronomical Twilight 6:42 AM AKDT 11:43 PM AKDT
Moon 9:07 AM AKDT (3/12) 11:12 PM AKDT (3/12)
Length of Visible Light 13h 01m
Length of Day
11h 25m
New Moon, 1% of the Moon is Illuminated
Mar 12
New Moon
Mar 19
First Quarter
Mar 27
Full
Apr 2
Last Quarter
Apr 10
New

Hourly Weather History & Observations

Time (AKDT) Temp. Windchill Dew Point Humidity Pressure Visibility Wind Dir Wind Speed Gust Speed Precip Events Conditions
12:53 AM 3.0 °F - -0.9 °F 84% 30.74 in 9.0 mi Calm Calm - 0.00 in   Overcast
1:53 AM 1.0 °F - -2.0 °F 87% 30.72 in 10.0 mi Calm Calm - N/A   Overcast
2:32 AM -0.4 °F - -4.0 °F 85% 30.73 in 10.0 mi Calm Calm - N/A   Overcast
2:53 AM -0.0 °F - -4.0 °F 83% 30.73 in 10.0 mi Calm Calm - N/A   Overcast
3:39 AM -0.4 °F -12.0 °F -2.2 °F 92% 30.72 in 1.5 mi NW 5.8 mph - N/A   Overcast
3:41 AM -0.4 °F -12.0 °F -2.2 °F 92% 30.72 in 0.8 mi NW 5.8 mph - N/A   Mist
3:49 AM -0.4 °F -8.3 °F -2.2 °F 92% 30.72 in 0.2 mi WNW 3.5 mph - N/A Fog Light Freezing Fog
3:53 AM -0.0 °F -7.9 °F -2.0 °F 91% 30.71 in 0.2 mi NW 3.5 mph - N/A Fog Light Freezing Fog
4:53 AM -2.0 °F - -4.0 °F 91% 30.71 in 0.2 mi Calm Calm - N/A Fog Light Freezing Fog
5:53 AM -0.0 °F - -2.0 °F 91% 30.71 in 0.2 mi Calm Calm - N/A Fog Light Freezing Fog
6:53 AM -0.9 °F - -4.0 °F 87% 30.69 in 0.2 mi Calm Calm - N/A Fog Light Freezing Fog
7:00 AM -0.4 °F - -4.0 °F 85% 30.70 in 0.5 mi Calm Calm - N/A Fog Light Freezing Fog
7:26 AM -2.2 °F - -5.8 °F 85% 30.69 in 0.8 mi Calm Calm - N/A   Mist
7:39 AM -2.2 °F - -5.8 °F 85% 30.69 in 0.5 mi Calm Calm - N/A Fog Light Freezing Fog
7:53 AM -7.1 °F - -9.9 °F 87% 30.68 in 0.5 mi Calm Calm - N/A Fog Light Freezing Fog
8:10 AM -7.6 °F - -11.2 °F 84% 30.67 in 1.0 mi Calm Calm - N/A   Mist
8:39 AM -9.4 °F - -11.2 °F 92% 30.65 in 2.0 mi Calm Calm - N/A   Overcast
8:49 AM -7.6 °F - -11.2 °F 84% 30.66 in 3.0 mi Calm Calm - N/A   Scattered Clouds
8:53 AM -8.0 °F - -11.0 °F 86% 30.66 in 2.0 mi Calm Calm - N/A   Scattered Clouds
9:02 AM -9.4 °F - -13.0 °F 84% 30.65 in 1.5 mi Calm Calm - N/A   Scattered Clouds
9:11 AM -7.6 °F - -11.2 °F 84% 30.65 in 0.8 mi Calm Calm - N/A   Mist
9:12 AM -9.4 °F - -11.2 °F 92% 30.64 in 0.5 mi Calm Calm - N/A   Mist
9:51 AM -7.6 °F - -9.4 °F 92% 30.65 in 0.8 mi Calm Calm - N/A   Mist
9:53 AM -7.1 °F - -9.9 °F 87% 30.65 in 1.0 mi Calm Calm - N/A   Mist
10:06 AM -9.4 °F - -13.0 °F 84% 30.64 in 0.8 mi Calm Calm - N/A   Mist
10:12 AM -9.4 °F - -11.2 °F 92% 30.64 in 0.5 mi Calm Calm - N/A Fog Light Freezing Fog
10:23 AM -7.6 °F - -11.2 °F 84% 30.64 in 0.5 mi Calm Calm - N/A Fog Light Freezing Fog
10:35 AM -7.6 °F - -11.2 °F 84% 30.64 in 2.0 mi Calm Calm - N/A   Partly Cloudy
10:53 AM -5.1 °F - -7.1 °F 91% 30.64 in 2.0 mi Calm Calm - N/A   Partly Cloudy
11:24 AM -4.0 °F - -7.6 °F 85% 30.62 in 4.0 mi Calm Calm - N/A   Partly Cloudy
11:53 AM -2.0 °F - -6.0 °F 83% 30.63 in 5.0 mi Calm Calm - N/A   Clear
12:36 PM 1.4 °F - -2.2 °F 85% 30.64 in 1.5 mi Calm Calm - N/A   Partly Cloudy
12:42 PM -0.4 °F - -5.8 °F 78% 30.63 in 9.0 mi Calm Calm - N/A   Partly Cloudy
12:53 PM -0.0 °F - -4.0 °F 83% 30.61 in 9.0 mi Calm Calm - N/A   Partly Cloudy
1:53 PM 1.9 °F -5.6 °F -2.0 °F 83% 30.60 in 10.0 mi West 3.5 mph - N/A   Partly Cloudy
2:53 PM 3.9 °F -5.3 °F -0.0 °F 84% 30.60 in 10.0 mi WNW 4.6 mph - N/A   Partly Cloudy
3:53 PM 5.0 °F - -0.9 °F 76% 30.58 in 10.0 mi Calm Calm - N/A   Scattered Clouds
4:53 PM 5.0 °F - -0.9 °F 76% 30.57 in 10.0 mi Calm Calm - N/A   Scattered Clouds
5:53 PM 6.1 °F - -0.9 °F 73% 30.56 in 10.0 mi Calm Calm - N/A   Scattered Clouds
6:53 PM 7.0 °F - -0.9 °F 70% 30.54 in 10.0 mi Calm Calm - N/A   Scattered Clouds
7:53 PM 6.1 °F - -0.0 °F 76% 30.50 in 10.0 mi Calm Calm - N/A   Clear
8:53 PM 3.0 °F - -0.9 °F 84% 30.47 in 10.0 mi Calm Calm - N/A   Mostly Cloudy
9:53 PM 1.0 °F -6.7 °F -2.0 °F 87% 30.48 in 10.0 mi North 3.5 mph - N/A   Clear
10:53 PM -0.9 °F - -4.0 °F 87% 30.45 in 10.0 mi Calm Calm - N/A   Clear
11:53 PM 1.0 °F - -2.0 °F 87% 30.45 in 10.0 mi Calm Calm - N/A   Mostly Cloudy